User: anonymous   Login
Location: Unspecified
(0.0000°N, 0.0000°E)
Time: 12:51:42
(UTC+01:00)
Language:

Cosmos 1953 Rocket - Orbit

View from above orbital plane
View from above orbital plane
View from above satellite
View from above satellite

Ground track
Ground track

The orbit data is extracted from the following two-line orbital elements,

1 19211U 88050B   16346.15024764  .00000111  00000-0  10723-4 0  9994
2 19211  82.5263  18.2837 0022370  21.0557  10.0106 14.82937241538921
Epoch (UTC): 11 December 2016 03:36:21
Eccentricity: 0.0022370
inclination: 82.5263°
perigee height: 604 km
apogee height: 636 km
right ascension of ascending node: 18.2837°
argument of perigee: 21.0557°
revolutions per day: 14.82937241
mean anomaly at epoch: 10.0106°
orbit number at epoch: 53892

The dashed part of the orbit path shows where the satellite is in the earth's shadow,  

DLR